SCP
1 0 0 0 0 0 0 0 0 0 0 0 0 0 0 0 0 0 1 0 0 0 0 0 0 0 0 0 0 0 0 0 0 0 0 0 0 0 0 0 0 0 0
1 1 0 0 0 0 0 0 0 0 0 0 0 0 0 0 0 0 0 1 0 0 0 0 0 0 0 0 0 0 0 0 0 0 0 0 0 0 0 0 0 0 0
1 1 1 1 0 0 0 0 0 0 0 0 0 0 0 0 0 0 1 1 0 0 0 0 0 0 0 0 0 0 0 0 0 0 0 0 0 0 0 0 0 0 0
2 1 1 1 1 0 0 0 0 0 0 0 0 0 0 0 0 1 1 1 1 0 0 0 0 0 0 0 0 0 0 0 0 0 0 0 0 0 0 0 0 0 0
2 2 1 1 1 1 0 0 0 0 0 0 0 0 0 0 0 0 1 1 1 0 0 0 0 0 0 0 0 0 0 0 0 0 0 0 0 0 0 0 0 0 0
2 2 1 1 2 1 1 1 1 0 0 0 0 0 0 1 1 1 1 1 1 0 0 0 0 0 0 0 0 0 0 0 0 0 0 0 0 0 0 0 0 0 0
2 3 2 1 1 1 1 1 1 1 1 1 1 0 1 1 1 2 1 1 1 0 0 0 0 0 0 0 0 0 0 0 0 0 0 0 0 0 0 0 0 0 0
2 3 2 2 1 1 1 2 1 1 1 1 1 0 1 0 0 0 0 1 0 0 0 0 0 0 0 0 0 0 0 0 0 0 0 0 0 0 0 0 0 0 0
3 3 2 1 2 2 1 1 1 1 2 1 1 0 0 0 0 0 0 0 0 0 0 0 0 0 0 0 0 0 0 0 0 0 0 0 0 0 0 0 0 0 0
1 1 2 1 2 2 1 1 1 0 0 2 1 0 1 1 1 0 0 0 0 0 0 0 0 0 0 0 0 0 0 0 0 0 0 0 0 0 0 0 0 0 0
1 1 1 1 2 2 1 1 1 1 1 0 1 1 1 2 2 1 0 0 0 0 0 0 0 0 0 0 0 0 0 0 0 0 0 0 0 0 0 0 0 0 0
2 3 2 2 2 1 2 2 1 1 1 1 1 0 3 2 1 1 0 0 0 0 0 0 0 0 0 0 0 0 0 0 0 0 0 0 0 0 0 0 0 0 0
1 4 3 4 4 3 2 2 1 1 1 1 1 2 1 1 2 1 1 0 0 0 0 0 0 0 0 0 0 0 0 0 0 0 0 0 0 0 0 0 0 0 0
2 4 3 3 3 2 2 2 2 1 1 1 1 1 1 0 0 0 0 0 0 0 0 0 0 0 0 0 0 0 0 0 0 0 0 0 0 0 0 0 0 0 0
1 2 2 2 2 2 2 3 2 1 1 2 2 2 0 1 0 0 0 0 0 0 0 0 0 0 0 0 0 0 0 0 0 0 0 0 0 0 0 0 0 0 0
1 1 1 2 2 3 3 4 3 1 1 2 2 2 2 1 1 0 0 0 0 0 0 0 0 0 0 0 0 0 0 0 0 0 0 0 0 0 0 0 0 0 0
1 1 1 1 2 3 4 4 3 1 1 1 1 1 1 1 0 0 0 0 0 0 0 0 0 0 0 0 0 0 0 0 0 0 0 0 0 0 0 0 0 0 0
1 0 1 1 2 2 3 2 2 2 2 1 1 1 0 0 0 0 0 0 0 0 0 0 0 0 0 0 0 0 0 0 0 0 0 0 0 0 0 0 0 0 0
1 1 1 2 2 2 1 2 1 1 1 1 0 0 0 0 0 0 0 0 0 0 0 0 0 0 0 0 0 0 0 0 0 0 0 0 0 0 0 0 0 0 0
1 1 1 1 1 1 1 1 2 1 1 0 0 0 0 0 0 0 0 0 0 0 0 0 0 0 0 0 0 0 0 0 0 0 0 0 0 0 0 0 0 -0 -0
1 1 1 1 1 1 1 2 1 1 1 0 0 0 0 0 0 0 0 0 0 0 0 0 0 0 0 0 0 0 0 0 0 -0 0 0 0 0 0 0 0 -0 -0
1 1 1 0 1 1 1 0 1 0 0 0 0 0 0 0 0 0 0 0 0 0 0 0 0 -0 -0 0 0 0 0 0 0 0 0 0 0 0 0 0 0 -0 -0
1 1 1 1 0 1 0 0 0 0 0 0 0 0 0 0 0 0 0 0 0 0 0 0 -0 -0 -0 0 0 0 0 0 0 0 -0 0 0 0 0 0 -0 0 -0
0 1 1 1 0 0 0 0 0 0 0 0 0 0 0 0 0 0 0 0 0 0 0 0 -0 -0 -0 0 0 0 0 0 0 0 -0 0 0 0 0 0 -0 0 0
0 0 0 0 0 0 0 0 0 0 0 0 0 0 0 0 0 -0 -0 0 0 0 -0 -0 -0 -0 -0 -0 -0 -0 0 0 0 0 0 0 0 0 0 -0 0 0 0
0 0 0 0 0 0 0 0 0 0 0 0 0 0 0 0 0 0 -0 0 0 0 -0 -0 -0 -0 -0 -0 -0 -0 -0 0 0 0 0 0 0 0 0 0 0 0 -0
Wind_Speed_500mb
40 37 38 39 38 38 38 38 35 33 28 27 25 25 21 21 19 14 19 20 18 16 13 8 9 11 14 16 13 22 35 43 50 61 63 64 55 47 44 44 43 40 41
48 51 40 39 39 39 39 37 36 33 29 26 25 26 24 22 21 19 17 25 24 20 14 11 10 12 13 16 21 25 39 47 53 63 65 65 51 48 45 44 44 40 39
43 43 41 40 38 38 39 38 37 34 30 28 27 25 23 24 23 21 19 23 26 23 18 14 13 13 10 14 24 25 37 47 53 62 65 61 52 47 43 45 43 37 35
51 47 45 41 38 36 36 39 37 35 32 31 28 26 24 23 23 22 20 24 26 23 23 17 15 14 11 17 23 26 35 45 52 60 62 54 48 44 43 42 41 40 36
51 48 45 44 41 36 38 39 39 37 34 33 31 27 26 24 23 21 25 28 27 27 21 20 23 18 18 22 25 30 35 42 52 57 56 51 47 44 42 41 41 38 40
48 48 46 49 50 40 41 41 41 38 36 33 31 29 24 25 24 23 29 27 28 23 27 24 23 28 24 25 27 27 33 40 51 56 56 47 45 42 40 40 39 38 39
54 53 49 47 50 52 45 44 43 42 37 36 33 31 24 30 27 27 24 27 29 30 21 21 24 34 27 27 26 27 32 41 51 52 52 43 42 43 40 39 39 37 38
61 61 51 48 46 50 58 57 48 46 46 43 43 38 27 18 28 32 32 32 35 26 28 31 37 37 28 26 22 32 33 44 50 49 46 38 37 38 39 38 38 40 39
61 62 60 52 46 52 53 54 57 58 47 48 49 39 38 29 30 25 36 35 28 32 33 35 37 29 24 15 10 26 35 44 46 42 33 33 30 35 39 40 41 42 39
53 52 56 50 48 43 44 51 53 46 47 43 43 51 41 25 28 18 25 34 37 34 32 33 27 25 19 15 21 21 35 41 39 34 34 36 37 37 36 39 42 43 39
51 54 54 52 56 49 41 38 42 52 50 47 51 48 54 43 31 26 29 36 33 33 32 29 27 21 15 1 8 24 35 36 30 28 35 45 45 37 37 40 42 43 39
53 55 55 57 57 52 47 42 41 39 50 53 62 62 53 52 43 33 25 35 36 32 31 27 23 17 10 10 16 25 30 26 23 26 37 43 48 37 40 39 42 42 40
52 55 55 60 58 56 43 38 38 42 45 57 57 69 60 63 47 45 32 30 36 35 26 27 23 15 4 5 16 19 22 20 22 30 39 41 47 38 38 42 44 42 43
53 52 54 54 57 54 50 43 41 45 44 53 61 62 71 66 50 42 34 26 18 16 25 26 26 19 14 9 13 15 20 19 21 33 39 45 48 38 40 42 45 45 47
48 51 53 56 55 51 50 53 48 47 50 53 55 64 65 72 63 66 51 28 17 21 24 22 22 23 13 5 6 1 2 12 26 32 38 47 45 42 40 44 45 46 45
42 49 53 54 53 55 58 59 50 46 50 56 57 63 61 70 72 58 58 43 29 23 21 18 21 16 16 7 5 4 4 17 30 31 38 45 41 40 43 46 48 49 44
44 47 53 54 55 58 65 59 52 45 48 57 58 58 56 68 71 66 52 39 31 22 14 12 19 23 19 13 5 6 6 9 21 30 40 41 35 38 43 47 49 51 46
45 46 49 53 53 50 51 56 49 47 54 60 60 53 64 70 70 56 47 41 37 27 18 17 22 21 13 12 12 10 9 3 9 27 42 41 38 39 42 46 47 51 48
46 46 50 54 52 49 47 52 48 51 56 59 60 58 68 72 66 55 54 56 42 32 21 17 26 21 16 15 13 11 7 11 10 27 35 38 40 36 41 45 47 48 51
39 44 44 45 46 44 46 52 53 54 55 64 62 62 70 76 70 65 66 54 46 34 24 32 29 25 21 20 13 9 8 9 10 15 21 28 35 41 42 43 48 50 53
31 32 37 44 44 41 46 57 52 56 54 66 62 71 71 75 72 72 65 58 45 38 39 36 32 29 23 17 13 11 8 8 14 13 16 24 23 25 37 46 48 51 53
34 33 40 36 42 36 54 51 45 60 60 62 76 80 76 70 76 64 51 45 36 36 45 38 36 33 28 21 18 14 10 9 9 12 13 22 23 24 27 49 45 48 49
30 34 33 34 45 46 47 48 51 58 63 74 87 84 77 79 74 66 59 49 48 43 38 46 46 36 34 24 25 23 20 22 16 11 9 19 25 27 22 38 47 47 47
34 38 37 42 39 35 35 35 40 50 65 79 90 76 84 76 68 72 66 65 54 48 45 46 45 39 34 31 26 26 24 26 21 24 18 16 25 29 28 30 44 46 47
33 35 42 43 35 30 20 21 32 59 64 80 91 90 80 77 78 76 82 75 69 61 50 48 46 43 41 42 29 21 20 19 23 24 31 26 16 27 33 37 36 49 49
30 32 39 38 27 19 18 30 32 59 92 96 84 83 77 85 84 80 70 71 79 73 67 62 59 51 42 42 39 26 18 18 19 28 29 30 34 23 29 38 39 37 38
Wind_Direction_500mb
224 225 222 219 221 223 227 224 224 229 229 233 234 237 233 232 231 228 247 243 241 243 251 271 292 312 324 321 317 333 337 342 343 348 348 354 353 348 345 339 338 335 329
235 234 228 226 222 221 223 226 227 226 227 229 233 233 233 233 238 233 236 247 224 230 244 256 270 299 313 311 327 313 331 338 341 344 348 351 347 344 339 341 337 334 326
230 228 230 228 227 224 220 221 223 224 225 230 230 234 233 235 236 231 212 233 233 217 228 247 260 281 303 298 296 307 328 335 338 342 346 344 341 341 342 337 336 335 334
247 245 231 229 228 221 223 220 221 225 228 231 230 230 235 227 229 223 215 228 210 214 219 243 242 262 274 276 279 308 325 333 335 340 341 340 340 339 340 338 336 339 330
250 257 242 228 227 222 220 220 220 220 225 224 228 226 223 225 231 232 222 212 211 218 231 224 230 252 253 269 282 305 322 330 334 339 339 338 336 340 341 336 335 332 331
252 255 251 238 226 222 224 220 218 220 218 224 223 228 222 228 230 226 219 215 215 208 217 231 236 241 263 272 284 299 318 328 335 337 336 338 343 343 339 337 336 337 336
245 249 251 243 234 231 222 227 220 214 218 212 214 212 216 212 205 218 213 204 206 215 211 216 222 239 263 267 283 305 317 330 337 336 336 344 356 353 345 345 346 343 342
245 242 244 248 234 233 234 227 226 218 215 210 205 208 198 205 190 202 196 204 222 221 225 204 216 236 268 275 291 305 325 334 337 338 340 6 359 358 356 356 352 349 347
238 245 246 241 234 236 233 235 237 228 218 215 205 207 216 226 184 209 209 210 212 215 230 228 233 245 253 268 348 323 329 336 338 340 349 354 356 353 351 352 349 349 346
232 234 237 238 228 230 231 240 240 224 223 224 218 213 220 229 193 171 186 191 205 215 219 219 228 245 247 292 303 302 330 338 340 348 356 3 359 351 348 351 351 348 344
242 232 232 230 233 229 229 227 241 239 234 220 228 223 220 221 207 200 185 187 198 203 210 221 231 231 252 355 322 321 336 339 348 2 9 13 7 4 360 355 349 348 346
240 237 228 229 234 230 225 232 234 241 240 236 233 233 224 213 215 204 181 182 195 193 201 210 222 231 269 270 278 318 341 345 357 360 8 6 7 8 3 1 356 352 348
237 233 229 221 229 232 225 226 233 237 243 238 240 235 244 220 219 214 194 176 186 188 202 213 225 247 254 224 290 341 343 355 355 360 4 1 2 4 0 2 3 358 355
237 234 230 222 221 228 229 229 233 240 242 244 238 237 234 229 204 208 172 205 163 175 210 229 233 241 244 205 286 10 324 357 2 12 7 10 7 14 9 5 7 3 360
237 231 229 224 221 230 232 228 236 249 253 245 234 230 239 233 222 227 219 229 214 194 206 233 243 230 200 216 294 209 58 8 15 12 9 10 14 13 10 8 11 8 3
247 228 228 225 217 218 223 227 241 246 249 244 238 229 225 224 217 216 213 210 205 220 206 223 217 208 184 203 311 112 16 21 354 7 8 7 14 14 10 13 12 11 8
247 234 223 223 216 215 221 227 237 248 244 241 236 236 232 214 215 206 196 183 185 193 183 189 215 203 190 183 195 126 73 72 336 4 9 12 19 10 14 18 16 16 12
240 233 223 216 215 216 220 226 231 247 244 240 237 222 210 205 199 190 188 183 180 177 176 178 205 183 168 172 149 121 108 49 46 10 13 15 19 15 18 22 20 18 18
239 224 214 210 211 216 216 222 228 243 242 239 230 223 216 198 191 187 183 182 173 164 162 203 168 159 157 152 136 117 109 47 23 17 16 5 11 16 22 22 23 20 19
234 221 209 214 214 216 223 226 226 238 240 233 228 228 219 200 197 184 180 175 166 160 174 178 151 155 154 150 141 120 74 82 48 30 14 16 10 12 23 25 24 23 23
218 215 218 224 223 217 225 224 233 243 237 225 224 209 198 195 195 184 180 171 170 176 174 156 147 148 149 134 138 135 127 93 34 54 22 17 20 26 21 25 24 26 29
221 222 225 229 233 235 248 246 240 239 233 222 203 187 181 182 177 170 164 165 173 177 165 152 147 150 142 135 126 112 106 93 44 25 41 29 26 26 22 26 22 26 25
228 230 233 234 252 247 246 235 230 231 223 215 201 191 179 177 166 157 156 151 155 160 160 153 150 140 127 136 117 107 97 83 60 41 36 37 31 30 28 17 19 26 26
227 221 222 235 241 245 243 240 244 226 213 206 188 189 171 159 164 164 152 154 147 144 144 139 136 131 133 119 117 111 96 72 58 49 41 54 42 39 33 16 23 20 28
218 218 220 228 239 244 233 224 224 208 212 189 173 166 166 159 157 157 155 153 143 138 136 132 126 124 125 118 115 94 93 83 66 58 50 55 46 48 41 31 25 23 26
212 214 221 232 228 227 212 209 211 218 179 165 158 155 157 158 157 162 159 151 140 133 132 123 117 114 112 116 110 100 94 87 78 63 58 52 48 43 44 34 33 30 24
Wind_Speed_850mb
40 37 38 39 38 38 38 38 35 33 28 27 25 25 21 21 19 14 19 20 18 16 13 8 9 11 14 16 13 22 35 43 50 61 63 64 55 47 44 44 43 40 41
48 51 40 39 39 39 39 37 36 33 29 26 25 26 24 22 21 19 17 25 24 20 14 11 10 12 13 16 21 25 39 47 53 63 65 65 51 48 45 44 44 40 39
43 43 41 40 38 38 39 38 37 34 30 28 27 25 23 24 23 21 19 23 26 23 18 14 13 13 10 14 24 25 37 47 53 62 65 61 52 47 43 45 43 37 35
51 47 45 41 38 36 36 39 37 35 32 31 28 26 24 23 23 22 20 24 26 23 23 17 15 14 11 17 23 26 35 45 52 60 62 54 48 44 43 42 41 40 36
51 48 45 44 41 36 38 39 39 37 34 33 31 27 26 24 23 21 25 28 27 27 21 20 23 18 18 22 25 30 35 42 52 57 56 51 47 44 42 41 41 38 40
48 48 46 49 50 40 41 41 41 38 36 33 31 29 24 25 24 23 29 27 28 23 27 24 23 28 24 25 27 27 33 40 51 56 56 47 45 42 40 40 39 38 39
54 53 49 47 50 52 45 44 43 42 37 36 33 31 24 30 27 27 24 27 29 30 21 21 24 34 27 27 26 27 32 41 51 52 52 43 42 43 40 39 39 37 38
61 61 51 48 46 50 58 57 48 46 46 43 43 38 27 18 28 32 32 32 35 26 28 31 37 37 28 26 22 32 33 44 50 49 46 38 37 38 39 38 38 40 39
61 62 60 52 46 52 53 54 57 58 47 48 49 39 38 29 30 25 36 35 28 32 33 35 37 29 24 15 10 26 35 44 46 42 33 33 30 35 39 40 41 42 39
53 52 56 50 48 43 44 51 53 46 47 43 43 51 41 25 28 18 25 34 37 34 32 33 27 25 19 15 21 21 35 41 39 34 34 36 37 37 36 39 42 43 39
51 54 54 52 56 49 41 38 42 52 50 47 51 48 54 43 31 26 29 36 33 33 32 29 27 21 15 1 8 24 35 36 30 28 35 45 45 37 37 40 42 43 39
53 55 55 57 57 52 47 42 41 39 50 53 62 62 53 52 43 33 25 35 36 32 31 27 23 17 10 10 16 25 30 26 23 26 37 43 48 37 40 39 42 42 40
52 55 55 60 58 56 43 38 38 42 45 57 57 69 60 63 47 45 32 30 36 35 26 27 23 15 4 5 16 19 22 20 22 30 39 41 47 38 38 42 44 42 43
53 52 54 54 57 54 50 43 41 45 44 53 61 62 71 66 50 42 34 26 18 16 25 26 26 19 14 9 13 15 20 19 21 33 39 45 48 38 40 42 45 45 47
48 51 53 56 55 51 50 53 48 47 50 53 55 64 65 72 63 66 51 28 17 21 24 22 22 23 13 5 6 1 2 12 26 32 38 47 45 42 40 44 45 46 45
42 49 53 54 53 55 58 59 50 46 50 56 57 63 61 70 72 58 58 43 29 23 21 18 21 16 16 7 5 4 4 17 30 31 38 45 41 40 43 46 48 49 44
44 47 53 54 55 58 65 59 52 45 48 57 58 58 56 68 71 66 52 39 31 22 14 12 19 23 19 13 5 6 6 9 21 30 40 41 35 38 43 47 49 51 46
45 46 49 53 53 50 51 56 49 47 54 60 60 53 64 70 70 56 47 41 37 27 18 17 22 21 13 12 12 10 9 3 9 27 42 41 38 39 42 46 47 51 48
46 46 50 54 52 49 47 52 48 51 56 59 60 58 68 72 66 55 54 56 42 32 21 17 26 21 16 15 13 11 7 11 10 27 35 38 40 36 41 45 47 48 51
39 44 44 45 46 44 46 52 53 54 55 64 62 62 70 76 70 65 66 54 46 34 24 32 29 25 21 20 13 9 8 9 10 15 21 28 35 41 42 43 48 50 53
31 32 37 44 44 41 46 57 52 56 54 66 62 71 71 75 72 72 65 58 45 38 39 36 32 29 23 17 13 11 8 8 14 13 16 24 23 25 37 46 48 51 53
34 33 40 36 42 36 54 51 45 60 60 62 76 80 76 70 76 64 51 45 36 36 45 38 36 33 28 21 18 14 10 9 9 12 13 22 23 24 27 49 45 48 49
30 34 33 34 45 46 47 48 51 58 63 74 87 84 77 79 74 66 59 49 48 43 38 46 46 36 34 24 25 23 20 22 16 11 9 19 25 27 22 38 47 47 47
34 38 37 42 39 35 35 35 40 50 65 79 90 76 84 76 68 72 66 65 54 48 45 46 45 39 34 31 26 26 24 26 21 24 18 16 25 29 28 30 44 46 47
33 35 42 43 35 30 20 21 32 59 64 80 91 90 80 77 78 76 82 75 69 61 50 48 46 43 41 42 29 21 20 19 23 24 31 26 16 27 33 37 36 49 49
30 32 39 38 27 19 18 30 32 59 92 96 84 83 77 85 84 80 70 71 79 73 67 62 59 51 42 42 39 26 18 18 19 28 29 30 34 23 29 38 39 37 38
Wind_Direction_850mb
224 225 222 219 221 223 227 224 224 229 229 233 234 237 233 232 231 228 247 243 241 243 251 271 292 312 324 321 317 333 337 342 343 348 348 354 353 348 345 339 338 335 329
235 234 228 226 222 221 223 226 227 226 227 229 233 233 233 233 238 233 236 247 224 230 244 256 270 299 313 311 327 313 331 338 341 344 348 351 347 344 339 341 337 334 326
230 228 230 228 227 224 220 221 223 224 225 230 230 234 233 235 236 231 212 233 233 217 228 247 260 281 303 298 296 307 328 335 338 342 346 344 341 341 342 337 336 335 334
247 245 231 229 228 221 223 220 221 225 228 231 230 230 235 227 229 223 215 228 210 214 219 243 242 262 274 276 279 308 325 333 335 340 341 340 340 339 340 338 336 339 330
250 257 242 228 227 222 220 220 220 220 225 224 228 226 223 225 231 232 222 212 211 218 231 224 230 252 253 269 282 305 322 330 334 339 339 338 336 340 341 336 335 332 331
252 255 251 238 226 222 224 220 218 220 218 224 223 228 222 228 230 226 219 215 215 208 217 231 236 241 263 272 284 299 318 328 335 337 336 338 343 343 339 337 336 337 336
245 249 251 243 234 231 222 227 220 214 218 212 214 212 216 212 205 218 213 204 206 215 211 216 222 239 263 267 283 305 317 330 337 336 336 344 356 353 345 345 346 343 342
245 242 244 248 234 233 234 227 226 218 215 210 205 208 198 205 190 202 196 204 222 221 225 204 216 236 268 275 291 305 325 334 337 338 340 6 359 358 356 356 352 349 347
238 245 246 241 234 236 233 235 237 228 218 215 205 207 216 226 184 209 209 210 212 215 230 228 233 245 253 268 348 323 329 336 338 340 349 354 356 353 351 352 349 349 346
232 234 237 238 228 230 231 240 240 224 223 224 218 213 220 229 193 171 186 191 205 215 219 219 228 245 247 292 303 302 330 338 340 348 356 3 359 351 348 351 351 348 344
242 232 232 230 233 229 229 227 241 239 234 220 228 223 220 221 207 200 185 187 198 203 210 221 231 231 252 355 322 321 336 339 348 2 9 13 7 4 360 355 349 348 346
240 237 228 229 234 230 225 232 234 241 240 236 233 233 224 213 215 204 181 182 195 193 201 210 222 231 269 270 278 318 341 345 357 360 8 6 7 8 3 1 356 352 348
237 233 229 221 229 232 225 226 233 237 243 238 240 235 244 220 219 214 194 176 186 188 202 213 225 247 254 224 290 341 343 355 355 360 4 1 2 4 0 2 3 358 355
237 234 230 222 221 228 229 229 233 240 242 244 238 237 234 229 204 208 172 205 163 175 210 229 233 241 244 205 286 10 324 357 2 12 7 10 7 14 9 5 7 3 360
237 231 229 224 221 230 232 228 236 249 253 245 234 230 239 233 222 227 219 229 214 194 206 233 243 230 200 216 294 209 58 8 15 12 9 10 14 13 10 8 11 8 3
247 228 228 225 217 218 223 227 241 246 249 244 238 229 225 224 217 216 213 210 205 220 206 223 217 208 184 203 311 112 16 21 354 7 8 7 14 14 10 13 12 11 8
247 234 223 223 216 215 221 227 237 248 244 241 236 236 232 214 215 206 196 183 185 193 183 189 215 203 190 183 195 126 73 72 336 4 9 12 19 10 14 18 16 16 12
240 233 223 216 215 216 220 226 231 247 244 240 237 222 210 205 199 190 188 183 180 177 176 178 205 183 168 172 149 121 108 49 46 10 13 15 19 15 18 22 20 18 18
239 224 214 210 211 216 216 222 228 243 242 239 230 223 216 198 191 187 183 182 173 164 162 203 168 159 157 152 136 117 109 47 23 17 16 5 11 16 22 22 23 20 19
234 221 209 214 214 216 223 226 226 238 240 233 228 228 219 200 197 184 180 175 166 160 174 178 151 155 154 150 141 120 74 82 48 30 14 16 10 12 23 25 24 23 23
218 215 218 224 223 217 225 224 233 243 237 225 224 209 198 195 195 184 180 171 170 176 174 156 147 148 149 134 138 135 127 93 34 54 22 17 20 26 21 25 24 26 29
221 222 225 229 233 235 248 246 240 239 233 222 203 187 181 182 177 170 164 165 173 177 165 152 147 150 142 135 126 112 106 93 44 25 41 29 26 26 22 26 22 26 25
228 230 233 234 252 247 246 235 230 231 223 215 201 191 179 177 166 157 156 151 155 160 160 153 150 140 127 136 117 107 97 83 60 41 36 37 31 30 28 17 19 26 26
227 221 222 235 241 245 243 240 244 226 213 206 188 189 171 159 164 164 152 154 147 144 144 139 136 131 133 119 117 111 96 72 58 49 41 54 42 39 33 16 23 20 28
218 218 220 228 239 244 233 224 224 208 212 189 173 166 166 159 157 157 155 153 143 138 136 132 126 124 125 118 115 94 93 83 66 58 50 55 46 48 41 31 25 23 26
212 214 221 232 228 227 212 209 211 218 179 165 158 155 157 158 157 162 159 151 140 133 132 123 117 114 112 116 110 100 94 87 78 63 58 52 48 43 44 34 33 30 24